Location: Caltech
(34.1382°N, 118.1253°W)
Time: 17:01:36
(UTC-07:00)

NOSS 3-2 (A) - Visible Passes

Search period start: 30 June 2015 00:00
Search period end: 10 July 2015 00:00
Orbit: 925 x 1284 km, 63.4° (Epoch: 06 June)

Date Brightness Start Highest point End Pass type
(mag) Time Alt. Az. Time Alt. Az. Time Alt. Az.
30 Jun 5.8 04:55:40 10° SE 04:58:58 16° ESE 05:02:43 10° ENE visible
02 Jul 4.7 05:13:05 10° S 05:18:41 40° ESE 05:24:40 10° NE visible
03 Jul 5.4 04:29:10 10° SSE 04:33:38 22° ESE 04:38:28 10° ENE visible
04 Jul 5.9 03:47:10 10° ESE 03:48:37 11° ESE 03:50:35 10° E visible
05 Jul 4.1 04:47:29 10° S 04:53:24 55° ESE 04:59:43 10° NE visible
06 Jul 4.9 04:03:07 10° S 04:08:18 30° ESE 04:13:50 10° NE visible
07 Jul 5.6 03:19:45 10° SE 03:23:16 16° ESE 03:27:12 10° ENE visible
07 Jul 3.6 05:07:22 10° SW 05:13:28 66° WNW 05:20:01 10° NNE visible
08 Jul 3.6 04:23:25 18° SSW 04:28:09 74° ESE 04:34:40 10° NE visible
09 Jul 4.3 03:39:49 24° SSE 03:42:59 42° ESE 03:49:01 10° NE visible
